Wetbulb
58.40 58.04 57.55 56.96 56.75 57.08 57.44 57.44 56.58 56.72 57.20 57.59 57.28 57.10 57.05 56.77 56.50 56.41 56.45 56.53 56.53 56.81 57.04 57.49 57.80 58.00 57.84 57.71 57.43 56.92 56.24 55.37 54.86 54.10 53.71 54.08 54.06 53.85 53.66 53.95 54.03 53.98 53.74 53.48 53.37 53.31 53.20 52.97 52.91 52.66 52.43 51.71 51.51 51.37 51.14 51.09 50.72 50.56 50.25 49.92 49.78 49.40 49.23 49.09 48.90 48.62 48.14 47.89 48.04
58.21 57.67 56.69 55.13 55.19 56.17 56.99 56.89 56.67 56.63 57.12 57.77 57.50 57.13 56.86 56.68 56.36 56.27 56.27 56.41 56.72 56.95 57.28 57.65 57.87 58.02 57.82 57.39 57.07 56.33 55.51 54.79 54.33 53.91 53.49 53.66 53.73 53.76 53.84 54.04 53.94 53.88 53.63 53.36 53.18 53.16 53.16 52.81 52.81 52.54 52.20 51.58 51.27 50.98 50.82 51.16 51.13 50.85 50.30 49.91 49.86 49.72 49.55 49.53 49.37 49.12 48.90 48.70 48.35
58.16 57.61 57.25 56.74 56.76 56.90 56.90 56.92 56.96 57.20 57.38 57.55 57.50 57.23 56.86 56.59 56.36 56.32 56.23 56.51 56.96 57.10 57.38 57.56 58.07 57.90 57.38 57.31 56.73 55.88 55.14 54.91 54.50 53.96 53.75 53.71 53.63 53.80 53.96 54.06 53.88 53.40 53.13 53.30 53.28 53.23 53.09 52.86 52.55 51.96 51.55 51.85 51.48 51.09 50.80 50.48 50.47 50.58 50.58 50.25 50.30 50.07 50.09 50.33 49.60 49.44 49.44 49.45 48.89
58.06 57.72 57.45 57.28 57.02 56.84 56.67 56.60 56.82 57.16 57.31 57.37 57.32 57.05 56.78 56.69 56.50 56.51 56.56 56.66 56.84 56.93 57.21 57.56 57.75 57.75 57.32 57.03 56.08 55.32 54.68 53.95 54.08 53.98 53.71 53.65 53.48 53.70 53.87 53.93 53.51 53.35 53.25 53.30 53.13 52.97 52.79 52.57 52.43 52.04 51.73 51.78 51.40 51.32 51.24 51.11 50.55 50.82 51.11 50.90 50.48 50.32 50.33 50.70 50.27 50.10 49.93 49.85 49.38
57.88 57.82 57.63 57.45 57.11 56.87 56.72 56.69 56.54 56.83 57.05 57.44 57.23 57.05 56.78 56.65 56.56 56.56 56.38 56.31 56.49 56.76 57.20 57.62 57.73 57.55 57.06 56.63 55.40 54.74 54.18 53.78 52.65 53.09 53.71 53.33 53.35 53.64 53.85 53.68 53.41 53.28 53.18 53.16 52.91 52.72 52.42 52.21 52.35 52.16 51.94 51.86 51.92 51.84 51.51 51.03 50.96 51.03 50.98 50.94 50.79 50.90 51.01 50.96 50.66 50.47 50.15 49.93 49.75
57.76 57.82 57.71 57.62 57.29 57.09 56.86 56.61 56.53 56.73 56.93 57.29 56.87 56.67 56.50 56.47 56.41 56.24 56.11 56.21 56.39 56.84 56.96 56.54 56.69 56.45 56.07 55.92 54.89 54.30 53.99 53.91 53.26 53.39 53.56 53.25 53.47 53.62 53.64 53.48 53.51 53.41 53.33 53.03 52.82 52.49 52.36 52.32 52.16 51.97 51.74 51.82 51.87 51.50 51.08 50.85 51.01 51.03 50.96 50.95 51.11 51.13 51.21 51.13 50.89 50.54 50.15 49.75 49.78
57.70 57.72 57.57 57.47 57.29 57.15 56.85 56.61 56.55 56.62 56.71 56.74 56.20 55.82 55.71 55.87 56.11 56.12 56.15 56.38 56.56 56.66 56.30 55.49 56.23 56.18 55.82 55.21 54.53 53.93 53.64 53.56 53.60 53.53 53.35 53.31 53.37 53.37 53.41 53.43 53.41 53.30 53.11 52.99 52.71 52.47 52.39 52.36 52.08 51.50 50.72 50.33 51.11 51.19 50.95 51.11 51.09 51.09 51.11 51.11 51.22 51.21 51.21 50.87 50.78 50.54 50.14 49.75 49.70
57.62 57.47 57.32 57.17 57.18 56.99 56.76 56.53 56.43 56.42 56.40 56.36 55.86 55.58 55.57 55.68 56.00 56.14 56.23 56.33 56.38 56.33 56.14 56.17 56.88 56.59 55.81 55.12 54.48 53.76 53.24 53.32 53.31 53.23 53.20 53.18 53.12 53.28 53.41 53.38 53.31 53.26 53.14 53.10 52.81 52.52 52.36 52.39 52.09 51.63 51.35 51.01 51.24 51.09 51.03 50.97 51.08 51.00 50.97 50.89 50.96 50.96 51.09 51.44 51.42 50.77 50.18 49.84 49.63
57.29 57.17 57.20 57.05 57.00 56.90 56.67 56.51 56.18 56.16 56.03 55.94 55.67 55.50 55.56 55.63 56.03 56.13 56.33 56.20 56.11 56.27 56.49 56.84 56.58 56.21 55.56 55.16 54.54 53.62 53.18 53.31 53.26 53.20 53.14 53.22 53.22 53.16 53.25 53.36 53.16 53.12 53.10 53.18 52.90 52.57 52.26 52.32 52.09 51.97 51.73 51.63 51.65 51.51 51.44 51.14 51.13 51.02 50.90 50.82 50.64 50.43 50.40 51.00 51.00 50.54 50.10 49.92 49.55
56.90 56.93 56.92 56.83 56.82 56.69 56.60 56.50 56.04 55.80 55.53 55.50 55.39 55.28 54.85 54.02 55.17 56.05 56.41 56.24 56.08 56.41 56.69 56.83 56.23 55.75 55.43 55.19 54.39 53.63 53.22 53.47 53.40 53.25 53.12 53.02 52.86 52.91 53.21 53.28 53.06 52.93 52.97 53.03 52.86 52.57 52.27 52.32 52.09 52.00 51.84 51.82 51.69 51.52 51.32 51.14 51.17 50.98 50.95 50.90 50.66 50.38 50.23 50.38 50.33 49.91 49.72 49.83 49.52
56.75 56.83 56.73 56.75 56.75 56.59 56.47 56.67 56.11 55.57 55.24 55.13 55.17 55.21 55.04 54.33 55.41 56.11 56.46 56.50 56.53 56.60 56.53 56.30 55.83 55.49 55.43 55.25 54.28 53.44 53.28 53.62 53.51 53.37 53.13 52.92 52.78 52.95 53.19 53.18 53.10 52.98 52.95 52.93 52.99 52.74 52.63 52.42 52.11 51.98 51.82 51.67 51.60 51.45 51.36 51.24 51.23 51.12 51.08 51.10 50.65 50.53 50.43 50.25 50.54 50.38 50.18 50.02 49.60
56.83 56.77 56.76 56.73 56.73 56.83 56.65 56.65 56.35 56.05 55.61 55.16 55.19 55.36 55.53 55.90 56.09 56.22 56.32 56.74 56.28 56.24 56.10 56.02 55.67 55.42 55.21 55.20 53.91 53.22 53.14 53.46 53.40 53.22 53.04 52.92 52.92 52.93 53.01 52.92 52.95 52.98 52.95 52.98 53.10 53.10 52.95 52.67 52.31 51.98 51.67 51.51 51.87 51.91 51.64 51.21 51.23 51.12 50.96 50.83 50.72 50.64 50.72 50.73 50.60 50.90 50.99 50.60 49.81
56.82 56.73 56.68 56.64 56.83 56.84 56.71 56.53 56.57 56.50 56.15 55.74 55.56 55.57 55.74 55.96 56.12 56.16 56.14 56.39 55.95 55.87 55.93 55.91 55.60 55.32 55.21 54.77 53.84 53.42 53.34 53.47 53.29 53.11 52.89 52.81 52.89 52.69 52.81 52.74 52.85 52.89 52.95 53.13 53.25 53.25 53.03 52.64 52.44 52.15 51.94 51.76 51.98 51.97 51.81 51.55 51.38 51.19 51.04 50.85 50.78 50.78 50.86 50.78 50.84 50.90 50.68 50.15 49.97
56.79 56.58 56.50 56.56 56.65 56.66 56.53 56.35 56.44 56.47 56.43 56.15 55.86 55.77 55.89 56.14 55.96 55.94 56.03 56.10 55.89 55.85 55.80 55.66 55.27 55.07 54.84 54.40 53.83 53.49 53.35 53.27 53.24 53.07 52.84 52.62 52.70 52.70 52.70 52.85 52.76 52.89 53.01 53.22 53.25 53.15 52.91 52.80 52.57 52.36 52.15 52.03 52.05 52.05 51.87 51.83 51.76 51.59 51.36 51.06 50.92 50.90 50.90 50.90 50.84 50.65 50.23 49.54 49.55
56.63 56.52 56.53 56.41 56.46 56.28 56.38 56.29 56.30 56.48 56.49 56.35 56.17 56.13 56.15 56.23 55.83 55.86 55.84 56.10 55.85 55.81 55.71 55.35 54.88 54.52 54.33 54.19 53.85 53.57 53.42 53.34 53.10 52.87 52.70 52.40 52.70 52.72 52.72 52.81 52.80 52.80 53.07 53.13 53.23 53.19 53.15 52.85 52.71 52.72 52.59 52.38 52.40 52.36 52.36 52.13 52.12 52.02 51.85 51.63 51.44 51.27 51.15 51.06 50.87 50.68 50.23 49.68 49.60
56.36 56.29 56.30 56.28 56.16 56.17 56.23 56.19 56.39 56.48 56.55 56.57 56.53 56.48 56.31 56.27 56.16 55.83 55.66 55.76 55.73 55.61 55.27 54.89 54.70 54.68 54.29 53.57 53.68 53.56 53.48 53.47 53.17 52.94 52.85 52.77 52.72 52.80 52.81 52.95 52.95 53.03 53.09 53.22 53.13 53.23 53.26 53.15 53.18 53.01 52.98 52.85 52.74 52.84 52.69 52.59 52.54 52.35 52.17 52.04 51.81 51.64 51.45 51.06 50.87 50.68 50.38 49.83 49.63
56.03 56.20 56.17 56.14 56.04 56.01 55.98 56.19 56.38 56.57 56.65 56.82 56.66 56.58 56.51 56.25 56.19 55.55 55.01 55.00 55.39 55.23 54.89 54.60 54.56 54.38 54.09 53.38 53.50 53.60 53.76 53.61 53.46 53.31 53.16 53.16 53.09 53.09 53.10 53.25 53.25 53.27 53.47 53.32 53.29 53.28 53.38 53.37 53.28 53.28 53.28 53.16 53.09 53.25 53.12 52.95 52.84 52.69 52.46 52.31 52.15 51.97 51.62 50.98 50.88 50.84 50.51 49.92 49.68
55.97 55.94 56.06 55.93 55.91 55.94 56.10 56.25 56.40 56.50 56.70 56.84 56.91 56.80 56.59 56.39 56.07 55.42 54.83 54.66 55.12 54.86 54.49 54.34 54.38 54.38 54.16 53.87 53.88 53.68 53.68 53.83 53.75 53.68 53.76 53.68 53.61 53.61 53.61 53.63 53.63 53.70 53.78 53.70 53.68 53.58 53.50 53.66 53.62 53.67 53.58 53.48 53.55 53.54 53.51 53.31 53.18 53.01 52.76 52.54 52.35 52.14 51.89 51.28 51.05 51.05 50.88 50.07 49.62
56.05 55.97 55.93 55.84 55.94 56.00 55.94 55.92 56.20 56.45 56.65 56.79 56.90 56.85 56.66 56.42 56.02 55.53 55.39 55.05 54.85 54.71 54.56 54.34 54.43 54.38 54.23 54.01 54.11 53.79 53.42 54.05 54.12 54.07 54.14 54.14 54.07 54.07 53.99 53.99 54.07 54.07 54.07 53.99 54.05 53.97 53.95 53.94 53.96 53.81 53.73 53.73 53.69 53.61 53.48 53.30 53.22 52.98 52.69 52.48 52.29 52.14 51.87 51.64 51.24 50.85 50.58 49.91 49.22
56.12 56.03 55.94 55.84 55.97 55.94 55.96 56.03 56.24 56.50 56.70 56.85 56.83 56.73 56.66 56.49 56.07 55.61 55.41 55.29 54.92 54.93 54.88 54.58 54.51 54.36 54.23 54.31 54.39 54.10 54.02 54.36 54.51 54.51 54.50 54.58 54.43 54.36 54.34 54.34 54.34 54.34 54.34 54.34 54.42 54.34 54.33 54.26 54.19 54.04 53.88 53.65 53.60 53.47 53.20 52.91 52.72 52.34 52.18 52.14 52.01 51.86 51.65 51.50 51.13 50.65 50.07 49.57 48.78
56.26 56.12 56.02 56.06 56.11 56.17 56.18 56.27 56.54 56.61 56.74 56.85 56.71 56.71 56.63 56.56 56.22 55.82 55.63 55.57 55.30 55.12 55.19 54.82 54.73 54.58 54.38 54.39 54.41 54.49 54.51 54.52 54.82 54.89 54.79 54.72 54.43 54.49 54.49 54.49 54.49 54.43 54.58 54.58 54.51 54.50 54.56 54.56 54.38 54.23 53.91 53.60 53.37 53.14 52.97 52.61 52.34 52.01 51.68 51.63 51.56 51.22 51.09 50.94 50.69 50.33 49.84 49.19 48.67
56.35 56.38 56.28 56.28 56.28 56.38 56.38 56.46 56.46 56.65 56.64 56.65 56.71 56.62 56.63 56.37 56.14 55.90 55.94 55.82 55.41 55.14 55.12 54.88 54.75 54.76 54.77 54.71 54.72 54.74 54.82 54.75 54.90 55.10 55.02 54.74 54.58 54.50 54.50 54.58 54.66 54.73 54.60 54.60 54.67 54.60 54.51 54.39 54.36 54.12 53.88 53.64 53.30 52.98 52.63 52.57 52.51 52.07 51.58 51.12 50.86 50.53 50.35 50.27 50.19 49.82 49.56 48.95 48.47
56.59 56.51 56.45 56.35 56.36 55.89 55.69 56.21 56.32 56.50 56.43 56.38 56.36 56.37 56.32 56.15 55.94 55.83 55.88 55.71 54.94 54.66 54.58 54.58 54.73 54.85 54.96 55.11 55.04 54.91 54.91 54.76 54.89 54.89 54.89 54.96 54.81 54.74 54.74 54.82 54.75 54.67 54.67 54.83 54.89 54.79 54.76 54.40 54.12 53.88 53.78 53.54 53.31 53.06 52.77 52.57 52.49 52.29 52.00 51.05 50.65 50.34 50.02 49.79 49.66 49.31 48.85 48.08 47.73
56.38 56.32 56.21 56.25 56.23 56.00 55.80 56.08 56.08 56.10 56.05 55.94 55.96 55.90 55.87 55.70 55.64 55.52 55.29 54.96 54.42 54.21 54.28 54.63 54.55 54.60 54.67 54.98 54.99 54.99 54.91 54.68 54.52 54.45 54.52 54.53 54.75 54.67 54.67 54.83 54.76 54.82 54.63 54.64 53.88 53.47 53.39 53.61 54.14 53.97 53.83 53.41 53.51 53.40 53.22 53.11 52.92 52.67 52.21 51.33 50.73 50.26 49.85 49.31 49.00 48.78 48.66 48.75 48.84
56.15 56.01 55.86 55.95 55.89 55.77 55.69 55.62 55.53 55.48 55.49 55.57 55.53 55.54 55.35 55.11 55.10 54.95 54.62 54.42 54.14 54.07 54.00 54.14 54.36 54.41 54.45 54.61 54.77 54.77 54.70 54.55 54.32 54.17 54.10 54.02 54.17 54.31 54.51 54.67 54.67 54.64 54.08 52.72 49.36 47.71 47.72 48.68 51.55 53.36 53.99 53.78 53.71 53.66 53.54 53.37 53.02 52.69 52.09 51.30 50.60 50.04 49.58 49.29 49.34 49.48 49.48 49.57 49.12
55.98 55.74 55.66 55.65 55.60 55.36 55.17 55.15 55.08 55.10 55.07 55.16 55.03 54.95 54.90 54.75 54.67 54.49 54.35 54.14 54.14 54.00 54.07 54.00 54.14 53.63 53.29 54.05 54.12 54.27 54.27 54.19 54.05 53.83 53.76 53.82 53.80 53.83 53.97 54.37 54.12 53.97 52.77 49.72 45.97 44.43 44.31 44.81 46.51 48.78 51.47 54.57 54.12 53.58 53.18 52.86 52.53 52.14 51.70 51.01 50.33 50.17 50.00 49.97 49.66 49.30 49.03 48.99 48.41
55.76 55.52 55.44 55.47 55.26 54.99 54.80 54.77 54.78 54.72 54.49 54.42 54.34 54.31 54.39 54.46 54.28 54.14 53.93 53.93 54.07 54.14 54.21 54.28 54.28 52.79 51.70 53.47 53.41 53.42 53.48 53.61 53.58 53.63 53.67 53.82 53.73 53.60 53.70 54.01 53.99 53.58 50.92 44.61 41.91 41.70 42.46 43.28 43.92 45.64 48.77 53.73 53.79 53.54 53.11 52.71 51.97 51.66 51.31 50.82 50.43 49.89 49.44 48.77 48.27 47.87 47.78 47.96 47.64
55.45 55.29 55.20 55.15 54.77 54.70 54.57 54.52 54.28 54.16 54.06 53.97 53.84 53.82 53.86 53.69 53.64 53.58 53.58 53.79 54.00 54.20 54.34 54.48 54.03 53.38 52.99 53.48 53.23 53.13 53.07 53.15 53.22 53.37 53.65 53.78 53.60 53.62 53.71 53.99 53.62 49.81 43.55 37.94 38.55 39.54 40.92 42.27 43.47 44.75 46.84 50.19 53.57 53.90 52.92 52.27 51.29 50.63 49.92 49.04 48.14 47.33 46.70 46.38 46.56 46.83 46.83 46.52 45.16
55.33 55.17 54.98 54.66 54.49 54.54 54.35 54.12 53.91 53.84 53.85 53.72 53.68 53.51 53.25 53.11 53.10 53.22 53.44 53.65 53.85 53.94 54.07 54.14 53.93 53.84 53.64 53.27 53.10 53.03 52.72 52.80 53.10 53.27 53.13 52.82 52.48 52.87 53.00 52.57 47.68 42.65 38.93 38.44 38.78 39.41 40.43 41.54 42.81 44.35 46.06 48.19 51.99 52.74 51.58 49.89 48.50 47.05 45.99 45.05 44.32 43.64 43.23 43.05 43.49 43.99 44.08 43.31 40.89
55.28 54.97 54.76 54.49 54.45 54.33 54.24 54.11 53.97 53.97 53.95 53.78 53.56 53.28 53.03 52.88 52.98 53.18 53.44 53.65 53.83 53.88 53.88 54.14 53.93 53.60 53.37 53.37 53.31 53.16 52.93 52.67 52.78 52.65 52.48 52.39 52.93 50.78 46.75 41.66 40.94 40.18 39.38 38.52 39.15 40.17 41.42 42.41 43.28 44.18 44.95 45.67 47.69 48.66 48.11 45.86 44.17 42.72 41.68 40.84 40.06 39.29 38.84 38.43 38.33 38.73 38.96 38.52 36.74
55.15 54.92 54.62 54.34 54.36 54.21 54.21 54.22 54.14 53.98 53.93 53.88 53.51 53.31 53.16 53.15 53.10 53.40 53.70 53.95 53.77 53.32 53.07 53.84 53.88 53.80 53.66 53.82 53.73 53.49 53.30 53.22 53.27 53.54 53.32 52.35 46.88 43.12 41.21 40.85 40.46 39.73 39.14 39.11 40.09 41.21 42.29 43.11 43.03 43.03 43.03 43.21 44.19 44.56 43.73 41.41 39.86 38.66 37.62 36.81 36.28 35.78 35.32 34.86 34.34 34.16 34.16 34.09 33.80
55.29 54.81 54.51 54.15 54.15 54.27 54.25 54.31 54.27 54.22 54.02 53.80 53.70 53.58 53.44 53.40 53.48 53.51 53.66 53.57 53.31 52.97 52.80 53.21 53.47 53.55 53.51 53.67 53.70 53.56 53.29 53.29 52.98 51.98 50.04 46.52 43.65 42.16 41.39 40.82 40.15 39.20 38.97 39.92 40.90 41.53 41.86 41.78 41.20 40.63 40.19 40.11 40.31 40.38 39.62 37.75 36.30 35.24 34.39 33.73 33.39 33.18 33.06 32.90 32.37 32.13 32.01 31.92 31.95
55.24 54.75 54.31 54.01 54.12 54.16 54.26 54.34 54.43 54.36 54.20 53.99 53.93 53.89 53.88 53.78 53.64 53.63 53.67 53.45 53.84 54.31 54.57 54.31 54.12 53.39 52.45 51.53 50.26 48.89 47.73 47.19 46.43 45.13 43.74 42.94 42.40 41.77 41.14 40.51 40.46 39.68 39.17 40.14 40.40 40.28 39.99 39.60 39.11 38.49 38.05 37.78 37.96 37.54 36.69 35.47 34.31 33.28 32.45 31.79 31.63 31.48 31.38 31.11 31.12 30.91 30.84 30.73 30.59
55.08 54.64 54.23 54.00 54.07 54.17 54.31 54.41 54.53 54.44 54.21 53.93 53.91 54.02 54.04 54.02 53.91 54.03 53.97 53.93 54.05 53.26 51.99 50.48 49.00 47.64 46.29 45.17 44.14 43.15 42.47 42.20 42.62 42.84 42.58 42.18 41.51 40.88 40.55 40.69 40.82 40.13 39.43 39.51 39.11 38.73 38.43 38.13 37.69 37.12 36.67 36.06 36.06 35.31 34.34 33.27 32.30 31.48 30.80 30.27 30.11 30.00 29.90 29.81 29.72 29.63 29.65 29.62 29.63
54.97 54.64 54.42 54.30 54.30 54.34 54.39 54.50 54.56 54.37 54.17 53.89 53.86 53.94 54.19 54.10 54.50 54.30 52.92 50.17 49.04 48.05 47.01 45.76 44.68 43.65 42.66 41.69 41.24 40.70 40.28 40.14 40.49 40.55 40.60 40.61 40.34 40.06 39.87 40.31 40.49 39.98 39.17 38.84 38.20 37.81 37.59 37.16 36.67 36.11 35.41 34.70 34.17 33.18 32.10 31.06 30.34 29.70 29.26 28.90 28.73 28.70 28.56 28.56 28.70 28.74 28.74 28.81 28.76
55.25 54.89 54.71 54.56 54.66 54.49 54.47 54.44 54.54 54.47 54.26 54.02 54.08 54.13 54.23 54.48 54.72 52.71 49.44 45.89 45.08 44.37 43.56 42.66 41.92 41.16 40.27 39.47 39.32 39.09 38.90 39.02 39.02 39.11 39.25 39.41 39.42 39.44 39.55 39.95 39.98 39.35 38.64 38.27 37.93 37.54 37.07 36.58 36.06 35.41 34.79 34.08 33.03 31.94 30.84 29.89 29.17 28.67 28.29 27.96 27.85 27.75 27.85 27.83 27.95 28.03 28.12 28.02 28.05
55.56 55.36 55.15 54.89 54.76 54.70 54.63 54.67 54.59 54.52 54.36 54.40 54.37 54.43 54.52 54.87 52.89 49.84 46.66 44.29 43.13 41.61 40.28 39.39 38.76 38.14 37.86 37.54 37.30 37.17 37.18 37.32 37.20 37.28 37.39 37.69 37.96 38.20 38.39 38.64 38.98 38.35 37.65 37.73 37.44 37.14 36.80 36.24 35.66 34.97 34.08 33.12 32.01 31.05 30.10 29.35 28.59 28.05 27.58 27.16 27.23 27.25 27.49 27.60 27.76 27.83 27.74 27.68 27.68
55.97 55.64 55.40 55.26 54.96 54.86 54.64 54.77 54.69 54.72 54.62 54.72 54.81 54.87 54.62 53.26 49.92 47.01 44.61 42.61 41.09 39.35 37.86 36.94 36.35 35.89 35.66 35.40 35.20 35.15 35.20 35.54 35.51 35.66 35.84 36.05 36.37 36.58 36.77 36.90 37.27 37.10 36.98 37.02 36.92 36.71 36.49 36.02 35.33 34.54 33.56 32.28 31.48 30.52 29.63 28.65 27.94 27.34 26.87 26.51 26.45 26.70 26.96 27.23 27.50 27.59 27.74 27.88 28.20
56.17 56.01 55.81 55.56 55.15 54.99 54.94 54.92 54.86 55.02 55.20 55.32 54.98 54.09 52.49 50.06 47.37 45.14 43.14 41.28 39.86 38.25 36.71 35.63 34.84 34.39 34.12 33.94 33.61 33.45 33.62 33.95 34.17 34.41 34.61 34.83 35.16 35.32 35.40 35.47 35.73 35.92 36.09 36.39 36.29 36.14 35.84 35.42 34.85 34.16 33.17 31.94 31.21 30.32 29.28 28.32 27.43 26.78 26.33 25.91 25.80 25.80 25.98 26.33 26.51 26.81 27.23 27.79 29.07
56.55 56.64 56.43 56.12 55.75 55.55 55.39 55.47 55.66 55.96 55.89 55.06 52.84 50.42 48.12 46.03 44.22 42.66 41.33 39.79 38.46 36.98 35.41 34.17 33.46 33.19 33.01 32.50 32.07 31.89 31.91 32.18 32.81 33.08 33.42 33.73 34.24 34.53 34.60 34.46 34.75 34.94 35.19 35.59 35.75 35.64 35.35 34.98 34.50 33.89 33.11 32.03 31.23 30.34 29.34 28.22 27.31 26.42 25.89 25.47 25.12 24.94 24.91 25.20 25.56 25.80 26.01 26.54 27.78
57.15 56.98 56.81 56.69 56.43 56.44 56.37 56.42 56.03 55.10 53.59 51.40 48.86 46.70 44.79 43.11 41.87 40.81 39.65 38.12 36.60 35.30 34.09 32.94 32.52 32.32 32.03 31.57 31.04 30.45 30.29 30.30 30.84 31.34 31.89 32.27 32.89 33.34 33.63 33.57 33.83 34.10 34.64 35.13 35.29 35.19 34.99 34.79 34.32 33.79 33.08 31.89 31.27 30.48 29.56 28.40 27.13 26.10 25.45 25.18 24.85 24.58 24.29 24.29 24.58 24.82 25.00 25.27 25.74
MSLP
1004.63 1004.87 1005.15 1005.43 1005.63 1005.87 1006.11 1006.39 1006.67 1006.91 1007.15 1007.31 1007.51 1007.67 1007.83 1007.99 1008.15 1008.43 1008.67 1008.87 1009.11 1009.39 1009.63 1009.87 1009.95 1010.03 1010.27 1010.47 1010.59 1010.59 1010.59 1010.79 1011.19 1011.63 1012.11 1012.59 1012.83 1012.79 1012.51 1012.23 1012.11 1012.23 1012.43 1012.71 1012.95 1013.19 1013.43 1013.67 1013.95 1014.31 1014.55 1014.75 1015.03 1015.23 1015.39 1015.47 1015.71 1015.91 1016.07 1016.27 1016.43 1016.59 1016.75 1016.87 1017.03 1017.15 1017.19 1017.27 1017.31
1004.71 1004.99 1005.23 1005.47 1005.71 1005.87 1006.11 1006.43 1006.71 1006.99 1007.19 1007.39 1007.55 1007.71 1007.87 1008.03 1008.15 1008.39 1008.63 1008.87 1009.07 1009.31 1009.63 1009.87 1009.99 1010.03 1010.07 1010.23 1010.31 1010.31 1010.43 1010.75 1011.11 1011.55 1011.99 1012.39 1012.55 1012.43 1012.19 1012.07 1012.07 1012.15 1012.39 1012.67 1012.95 1013.23 1013.47 1013.75 1014.03 1014.31 1014.59 1014.83 1015.03 1015.27 1015.39 1015.47 1015.67 1015.87 1016.07 1016.23 1016.35 1016.51 1016.63 1016.79 1016.87 1016.99 1017.07 1017.15 1017.19
1004.75 1005.03 1005.31 1005.51 1005.71 1005.91 1006.15 1006.43 1006.71 1006.99 1007.23 1007.47 1007.63 1007.83 1007.95 1008.07 1008.19 1008.43 1008.67 1008.95 1009.15 1009.43 1009.67 1009.91 1010.07 1010.03 1009.99 1010.07 1010.19 1010.31 1010.43 1010.67 1011.03 1011.43 1011.79 1012.15 1012.23 1012.11 1011.95 1011.99 1012.03 1012.19 1012.43 1012.67 1012.95 1013.19 1013.47 1013.75 1014.03 1014.31 1014.59 1014.83 1015.03 1015.23 1015.39 1015.51 1015.67 1015.83 1016.03 1016.19 1016.31 1016.43 1016.55 1016.67 1016.75 1016.87 1016.99 1017.07 1017.15
1004.87 1005.11 1005.35 1005.59 1005.75 1005.87 1006.11 1006.35 1006.67 1006.95 1007.19 1007.43 1007.63 1007.83 1008.03 1008.15 1008.31 1008.55 1008.79 1009.03 1009.31 1009.55 1009.75 1009.91 1010.07 1010.07 1010.03 1009.99 1010.15 1010.31 1010.47 1010.67 1010.99 1011.31 1011.67 1011.91 1011.95 1011.87 1011.87 1011.87 1012.03 1012.27 1012.51 1012.75 1012.99 1013.27 1013.51 1013.75 1014.03 1014.31 1014.51 1014.75 1014.95 1015.15 1015.31 1015.47 1015.63 1015.79 1015.95 1016.11 1016.15 1016.31 1016.43 1016.55 1016.59 1016.75 1016.87 1016.99 1017.03
1004.99 1005.19 1005.43 1005.59 1005.75 1005.95 1006.15 1006.31 1006.59 1006.87 1007.15 1007.43 1007.63 1007.87 1008.11 1008.31 1008.43 1008.67 1008.91 1009.15 1009.43 1009.59 1009.79 1009.99 1010.15 1010.15 1010.07 1009.95 1010.07 1010.31 1010.51 1010.75 1011.07 1011.39 1011.67 1011.79 1011.75 1011.75 1011.79 1011.87 1012.07 1012.31 1012.59 1012.79 1013.07 1013.31 1013.55 1013.79 1014.03 1014.27 1014.47 1014.63 1014.83 1014.99 1015.15 1015.31 1015.51 1015.71 1015.87 1015.95 1016.11 1016.23 1016.31 1016.39 1016.47 1016.59 1016.71 1016.79 1016.91
1005.11 1005.31 1005.51 1005.71 1005.87 1006.03 1006.23 1006.39 1006.63 1006.87 1007.15 1007.39 1007.67 1007.87 1008.15 1008.35 1008.55 1008.75 1008.99 1009.23 1009.51 1009.75 1009.95 1010.15 1010.31 1010.31 1010.23 1010.07 1010.07 1010.23 1010.51 1010.83 1011.19 1011.47 1011.63 1011.63 1011.63 1011.67 1011.79 1011.95 1012.15 1012.35 1012.59 1012.87 1013.11 1013.31 1013.59 1013.79 1014.07 1014.31 1014.51 1014.59 1014.75 1014.91 1015.07 1015.23 1015.47 1015.63 1015.79 1015.91 1016.03 1016.11 1016.23 1016.31 1016.43 1016.47 1016.59 1016.75 1016.83
1005.15 1005.35 1005.59 1005.79 1005.99 1006.15 1006.31 1006.43 1006.71 1006.91 1007.15 1007.43 1007.71 1007.91 1008.15 1008.35 1008.59 1008.83 1009.03 1009.31 1009.59 1009.87 1010.11 1010.31 1010.43 1010.47 1010.39 1010.31 1010.23 1010.35 1010.63 1011.03 1011.35 1011.55 1011.59 1011.51 1011.55 1011.67 1011.83 1012.03 1012.19 1012.43 1012.67 1012.91 1013.15 1013.35 1013.59 1013.79 1014.07 1014.35 1014.55 1014.63 1014.75 1014.87 1015.03 1015.19 1015.35 1015.55 1015.75 1015.87 1015.99 1016.03 1016.11 1016.19 1016.27 1016.39 1016.55 1016.67 1016.75
1005.19 1005.43 1005.63 1005.83 1006.03 1006.19 1006.31 1006.51 1006.75 1006.95 1007.15 1007.43 1007.71 1007.91 1008.15 1008.35 1008.63 1008.87 1009.11 1009.39 1009.63 1009.91 1010.15 1010.31 1010.43 1010.51 1010.51 1010.51 1010.51 1010.59 1010.83 1011.15 1011.43 1011.51 1011.47 1011.47 1011.59 1011.71 1011.87 1012.03 1012.27 1012.47 1012.71 1012.87 1013.15 1013.35 1013.59 1013.83 1014.03 1014.27 1014.47 1014.63 1014.79 1014.91 1015.03 1015.15 1015.31 1015.51 1015.63 1015.75 1015.87 1015.91 1015.99 1016.03 1016.15 1016.31 1016.43 1016.59 1016.67
1005.31 1005.51 1005.71 1005.91 1006.11 1006.27 1006.43 1006.59 1006.79 1006.95 1007.15 1007.43 1007.71 1007.91 1008.15 1008.35 1008.59 1008.87 1009.15 1009.43 1009.67 1009.87 1010.15 1010.31 1010.43 1010.51 1010.59 1010.63 1010.67 1010.75 1010.91 1011.19 1011.35 1011.39 1011.39 1011.47 1011.59 1011.75 1011.91 1012.07 1012.31 1012.51 1012.71 1012.87 1013.11 1013.31 1013.59 1013.87 1014.07 1014.23 1014.35 1014.51 1014.67 1014.83 1014.99 1015.11 1015.31 1015.47 1015.59 1015.71 1015.79 1015.87 1015.91 1015.95 1016.07 1016.19 1016.35 1016.47 1016.59
1005.31 1005.59 1005.79 1006.03 1006.19 1006.35 1006.51 1006.71 1006.87 1007.03 1007.15 1007.39 1007.67 1007.91 1008.15 1008.43 1008.63 1008.87 1009.15 1009.39 1009.67 1009.87 1010.11 1010.19 1010.31 1010.43 1010.59 1010.75 1010.75 1010.79 1010.95 1011.15 1011.23 1011.31 1011.35 1011.47 1011.59 1011.71 1011.87 1012.07 1012.31 1012.51 1012.71 1012.87 1013.11 1013.35 1013.59 1013.87 1014.03 1014.15 1014.31 1014.43 1014.55 1014.71 1014.87 1015.03 1015.19 1015.35 1015.47 1015.59 1015.75 1015.83 1015.87 1015.91 1016.03 1016.15 1016.27 1016.39 1016.47
1005.43 1005.59 1005.83 1006.03 1006.23 1006.39 1006.59 1006.75 1006.87 1007.03 1007.15 1007.35 1007.59 1007.87 1008.15 1008.43 1008.67 1008.87 1009.15 1009.39 1009.63 1009.83 1009.99 1010.03 1010.15 1010.31 1010.59 1010.75 1010.75 1010.79 1010.95 1011.07 1011.15 1011.23 1011.31 1011.43 1011.55 1011.67 1011.83 1012.03 1012.27 1012.43 1012.63 1012.87 1013.15 1013.39 1013.59 1013.75 1013.91 1014.07 1014.23 1014.35 1014.51 1014.67 1014.79 1014.95 1015.07 1015.23 1015.35 1015.47 1015.59 1015.75 1015.83 1015.91 1015.95 1016.03 1016.15 1016.27 1016.35
1005.51 1005.71 1005.87 1006.11 1006.27 1006.43 1006.59 1006.79 1006.91 1007.03 1007.19 1007.39 1007.63 1007.87 1008.15 1008.43 1008.71 1008.95 1009.15 1009.39 1009.59 1009.71 1009.83 1009.91 1010.03 1010.31 1010.59 1010.83 1010.75 1010.75 1010.91 1011.03 1011.07 1011.15 1011.27 1011.39 1011.55 1011.67 1011.83 1012.03 1012.19 1012.39 1012.63 1012.87 1013.19 1013.43 1013.59 1013.75 1013.87 1013.99 1014.15 1014.35 1014.43 1014.59 1014.75 1014.87 1015.03 1015.15 1015.27 1015.39 1015.51 1015.63 1015.71 1015.75 1015.83 1015.87 1015.99 1016.07 1016.23
1005.59 1005.75 1005.99 1006.15 1006.31 1006.47 1006.63 1006.83 1006.95 1007.11 1007.27 1007.47 1007.67 1007.91 1008.15 1008.43 1008.71 1008.91 1009.15 1009.31 1009.47 1009.55 1009.67 1009.87 1010.07 1010.43 1010.71 1010.75 1010.67 1010.71 1010.83 1010.91 1011.03 1011.11 1011.23 1011.39 1011.55 1011.67 1011.83 1011.99 1012.19 1012.43 1012.67 1012.95 1013.23 1013.47 1013.59 1013.63 1013.75 1013.87 1014.03 1014.23 1014.35 1014.47 1014.59 1014.75 1014.87 1015.03 1015.15 1015.27 1015.43 1015.51 1015.55 1015.59 1015.67 1015.75 1015.83 1015.95 1016.07
1005.63 1005.83 1006.03 1006.19 1006.39 1006.55 1006.67 1006.87 1007.03 1007.15 1007.31 1007.47 1007.67 1007.87 1008.15 1008.35 1008.63 1008.83 1009.03 1009.15 1009.31 1009.39 1009.51 1009.75 1010.07 1010.35 1010.55 1010.55 1010.55 1010.63 1010.75 1010.83 1010.95 1011.07 1011.23 1011.39 1011.55 1011.71 1011.87 1012.03 1012.19 1012.43 1012.75 1013.03 1013.23 1013.35 1013.47 1013.55 1013.67 1013.75 1013.91 1014.11 1014.27 1014.39 1014.47 1014.59 1014.71 1014.83 1014.99 1015.11 1015.23 1015.31 1015.35 1015.39 1015.47 1015.59 1015.75 1015.87 1015.95
1005.71 1005.87 1006.03 1006.27 1006.43 1006.59 1006.75 1006.87 1007.03 1007.19 1007.35 1007.47 1007.67 1007.87 1008.03 1008.23 1008.43 1008.67 1008.87 1009.03 1009.11 1009.15 1009.31 1009.59 1009.91 1010.15 1010.31 1010.31 1010.43 1010.59 1010.71 1010.79 1010.91 1011.03 1011.23 1011.43 1011.59 1011.71 1011.87 1012.07 1012.27 1012.55 1012.79 1013.03 1013.15 1013.27 1013.31 1013.43 1013.51 1013.63 1013.75 1013.95 1014.11 1014.23 1014.35 1014.47 1014.59 1014.63 1014.75 1014.83 1014.91 1015.03 1015.11 1015.19 1015.31 1015.43 1015.55 1015.67 1015.75
1005.71 1005.91 1006.11 1006.31 1006.43 1006.59 1006.75 1006.91 1007.07 1007.23 1007.35 1007.51 1007.63 1007.75 1007.87 1008.03 1008.19 1008.43 1008.59 1008.75 1008.87 1009.03 1009.23 1009.47 1009.67 1009.87 1010.07 1010.19 1010.35 1010.47 1010.59 1010.75 1010.91 1011.07 1011.27 1011.43 1011.59 1011.75 1011.91 1012.11 1012.39 1012.59 1012.79 1012.91 1013.03 1013.15 1013.19 1013.27 1013.35 1013.47 1013.59 1013.75 1013.91 1014.07 1014.19 1014.31 1014.39 1014.43 1014.51 1014.59 1014.63 1014.75 1014.87 1014.95 1015.07 1015.23 1015.35 1015.47 1015.59
1005.71 1005.91 1006.15 1006.31 1006.47 1006.63 1006.79 1006.95 1007.07 1007.23 1007.39 1007.51 1007.59 1007.71 1007.75 1007.79 1007.91 1008.11 1008.31 1008.47 1008.63 1008.83 1009.03 1009.27 1009.47 1009.67 1009.87 1010.11 1010.27 1010.39 1010.55 1010.71 1010.87 1011.07 1011.27 1011.43 1011.59 1011.75 1011.95 1012.15 1012.35 1012.51 1012.67 1012.75 1012.87 1012.95 1013.03 1013.15 1013.19 1013.31 1013.43 1013.55 1013.75 1013.87 1013.99 1014.11 1014.15 1014.27 1014.31 1014.35 1014.43 1014.51 1014.59 1014.75 1014.87 1014.99 1015.15 1015.27 1015.39
1005.71 1005.87 1006.11 1006.31 1006.47 1006.63 1006.79 1006.95 1007.11 1007.27 1007.43 1007.51 1007.59 1007.67 1007.67 1007.63 1007.67 1007.83 1008.03 1008.19 1008.39 1008.59 1008.87 1009.15 1009.31 1009.55 1009.75 1009.99 1010.15 1010.31 1010.47 1010.63 1010.87 1011.03 1011.15 1011.31 1011.47 1011.71 1011.91 1012.07 1012.23 1012.35 1012.47 1012.59 1012.67 1012.75 1012.83 1012.95 1013.03 1013.15 1013.23 1013.35 1013.51 1013.63 1013.75 1013.83 1013.91 1014.03 1014.07 1014.15 1014.27 1014.31 1014.43 1014.59 1014.67 1014.79 1014.91 1015.07 1015.19
1005.67 1005.87 1006.07 1006.27 1006.43 1006.63 1006.79 1006.95 1007.11 1007.27 1007.43 1007.55 1007.63 1007.71 1007.71 1007.59 1007.55 1007.63 1007.87 1008.07 1008.27 1008.51 1008.75 1009.03 1009.27 1009.47 1009.67 1009.87 1010.03 1010.19 1010.39 1010.59 1010.75 1010.87 1010.99 1011.15 1011.35 1011.59 1011.75 1011.87 1012.03 1012.15 1012.23 1012.31 1012.43 1012.55 1012.59 1012.75 1012.83 1012.91 1013.03 1013.15 1013.31 1013.39 1013.47 1013.59 1013.71 1013.83 1013.91 1014.03 1014.11 1014.19 1014.31 1014.39 1014.47 1014.59 1014.71 1014.87 1015.03
1005.59 1005.83 1006.03 1006.23 1006.43 1006.59 1006.79 1006.95 1007.15 1007.31 1007.43 1007.59 1007.67 1007.75 1007.75 1007.67 1007.51 1007.59 1007.79 1008.03 1008.23 1008.47 1008.75 1008.95 1009.15 1009.39 1009.59 1009.75 1009.91 1010.11 1010.27 1010.43 1010.55 1010.67 1010.83 1011.03 1011.27 1011.47 1011.59 1011.71 1011.79 1011.91 1012.03 1012.15 1012.27 1012.35 1012.43 1012.51 1012.59 1012.71 1012.83 1012.99 1013.11 1013.23 1013.31 1013.47 1013.59 1013.71 1013.83 1013.91 1014.03 1014.07 1014.15 1014.27 1014.35 1014.43 1014.55 1014.67 1014.83
1005.55 1005.75 1006.03 1006.19 1006.39 1006.59 1006.79 1006.95 1007.11 1007.31 1007.47 1007.59 1007.71 1007.83 1007.87 1007.79 1007.59 1007.63 1007.83 1008.03 1008.23 1008.43 1008.67 1008.87 1009.03 1009.27 1009.43 1009.59 1009.79 1009.95 1010.07 1010.15 1010.31 1010.43 1010.67 1010.95 1011.11 1011.23 1011.35 1011.47 1011.63 1011.75 1011.87 1011.95 1012.07 1012.15 1012.19 1012.27 1012.35 1012.51 1012.67 1012.79 1012.91 1013.03 1013.19 1013.31 1013.47 1013.59 1013.71 1013.79 1013.87 1013.95 1014.03 1014.11 1014.19 1014.31 1014.43 1014.59 1014.67
1005.51 1005.75 1006.03 1006.19 1006.39 1006.59 1006.75 1006.95 1007.15 1007.31 1007.51 1007.67 1007.79 1007.87 1007.95 1007.87 1007.67 1007.67 1007.83 1008.03 1008.15 1008.35 1008.51 1008.67 1008.83 1009.03 1009.19 1009.35 1009.51 1009.67 1009.83 1009.91 1010.07 1010.31 1010.55 1010.75 1010.91 1011.03 1011.15 1011.35 1011.47 1011.59 1011.71 1011.79 1011.87 1011.87 1011.95 1012.03 1012.15 1012.31 1012.47 1012.59 1012.75 1012.87 1013.03 1013.19 1013.31 1013.47 1013.59 1013.67 1013.75 1013.87 1013.95 1014.03 1014.11 1014.19 1014.31 1014.47 1014.59
1005.47 1005.75 1005.99 1006.19 1006.39 1006.59 1006.75 1006.91 1007.15 1007.35 1007.51 1007.71 1007.83 1007.87 1007.87 1007.83 1007.63 1007.63 1007.75 1007.91 1007.99 1008.11 1008.27 1008.43 1008.59 1008.75 1008.91 1009.03 1009.19 1009.39 1009.59 1009.75 1009.95 1010.19 1010.43 1010.59 1010.75 1010.91 1011.03 1011.15 1011.27 1011.39 1011.47 1011.47 1011.55 1011.59 1011.71 1011.87 1012.03 1012.15 1012.27 1012.43 1012.59 1012.75 1012.87 1013.03 1013.15 1013.27 1013.43 1013.55 1013.71 1013.83 1013.95 1014.03 1014.11 1014.23 1014.35 1014.55 1014.75
1005.47 1005.67 1005.87 1006.11 1006.31 1006.51 1006.75 1006.91 1007.15 1007.31 1007.47 1007.59 1007.71 1007.71 1007.67 1007.59 1007.51 1007.55 1007.63 1007.75 1007.79 1007.91 1008.11 1008.27 1008.39 1008.55 1008.71 1008.79 1008.99 1009.19 1009.43 1009.71 1009.95 1010.15 1010.31 1010.43 1010.59 1010.75 1010.87 1010.91 1011.03 1011.07 1011.15 1011.19 1011.31 1011.43 1011.55 1011.71 1011.87 1011.99 1012.07 1012.23 1012.35 1012.47 1012.63 1012.75 1012.91 1013.07 1013.23 1013.43 1013.63 1013.87 1014.03 1014.15 1014.23 1014.35 1014.51 1014.67 1014.91
1005.39 1005.59 1005.79 1006.03 1006.23 1006.43 1006.67 1006.87 1007.07 1007.23 1007.39 1007.47 1007.47 1007.47 1007.47 1007.47 1007.43 1007.47 1007.55 1007.63 1007.75 1007.87 1007.99 1008.11 1008.23 1008.39 1008.59 1008.75 1008.91 1009.11 1009.31 1009.59 1009.87 1010.03 1010.23 1010.35 1010.43 1010.55 1010.63 1010.75 1010.83 1010.87 1010.95 1011.07 1011.23 1011.35 1011.47 1011.55 1011.63 1011.75 1011.83 1012.03 1012.15 1012.27 1012.43 1012.59 1012.75 1012.91 1013.15 1013.39 1013.59 1013.87 1014.15 1014.35 1014.47 1014.59 1014.71 1014.87 1015.19
1005.23 1005.47 1005.67 1005.87 1006.11 1006.35 1006.55 1006.75 1006.91 1007.03 1007.11 1007.19 1007.27 1007.31 1007.31 1007.39 1007.39 1007.39 1007.47 1007.59 1007.71 1007.83 1007.91 1008.03 1008.19 1008.35 1008.51 1008.75 1008.91 1009.11 1009.31 1009.51 1009.63 1009.83 1010.03 1010.23 1010.43 1010.55 1010.63 1010.67 1010.67 1010.71 1010.83 1011.03 1011.15 1011.19 1011.27 1011.31 1011.35 1011.47 1011.59 1011.75 1011.95 1012.15 1012.35 1012.59 1012.83 1013.03 1013.27 1013.55 1013.83 1014.07 1014.31 1014.59 1014.79 1014.95 1015.11 1015.31 1015.59
1005.11 1005.31 1005.51 1005.71 1005.91 1006.15 1006.35 1006.51 1006.67 1006.79 1006.87 1006.99 1007.11 1007.15 1007.19 1007.31 1007.31 1007.31 1007.43 1007.55 1007.63 1007.75 1007.87 1008.03 1008.15 1008.35 1008.55 1008.71 1008.91 1009.11 1009.27 1009.47 1009.59 1009.79 1009.99 1010.15 1010.35 1010.47 1010.59 1010.63 1010.71 1010.75 1010.99 1011.35 1011.47 1011.31 1011.15 1011.11 1011.15 1011.31 1011.47 1011.59 1011.87 1012.15 1012.55 1012.87 1013.19 1013.47 1013.71 1013.95 1014.19 1014.43 1014.71 1014.95 1015.15 1015.31 1015.47 1015.67 1015.87
1004.91 1005.15 1005.31 1005.51 1005.71 1005.91 1006.11 1006.27 1006.43 1006.55 1006.67 1006.79 1006.87 1006.99 1007.11 1007.15 1007.23 1007.31 1007.35 1007.47 1007.59 1007.75 1007.91 1008.03 1008.19 1008.39 1008.59 1008.75 1008.95 1009.07 1009.23 1009.43 1009.59 1009.79 1009.95 1010.11 1010.31 1010.43 1010.51 1010.63 1010.75 1011.15 1011.63 1011.87 1011.79 1011.67 1011.55 1011.43 1011.31 1011.35 1011.51 1011.75 1012.11 1012.47 1012.87 1013.23 1013.55 1013.83 1014.11 1014.43 1014.71 1014.99 1015.19 1015.39 1015.47 1015.63 1015.79 1015.99 1016.23
1004.71 1004.91 1005.11 1005.31 1005.47 1005.67 1005.83 1006.03 1006.19 1006.35 1006.47 1006.59 1006.71 1006.83 1006.99 1007.07 1007.15 1007.23 1007.31 1007.47 1007.63 1007.83 1008.03 1008.11 1008.27 1008.43 1008.63 1008.83 1008.95 1009.11 1009.27 1009.43 1009.59 1009.79 1009.99 1010.11 1010.35 1010.55 1010.75 1010.99 1011.43 1011.79 1011.99 1011.95 1011.83 1011.75 1011.75 1011.75 1011.59 1011.55 1011.67 1011.91 1012.27 1012.67 1013.07 1013.47 1013.83 1014.23 1014.59 1014.99 1015.31 1015.51 1015.71 1015.87 1015.95 1016.03 1016.15 1016.39 1016.75
1004.47 1004.71 1004.91 1005.15 1005.31 1005.47 1005.63 1005.83 1005.99 1006.15 1006.31 1006.43 1006.59 1006.75 1006.87 1006.99 1007.07 1007.15 1007.31 1007.43 1007.59 1007.79 1007.95 1008.07 1008.27 1008.47 1008.67 1008.83 1008.99 1009.15 1009.31 1009.47 1009.59 1009.75 1010.03 1010.31 1010.59 1011.03 1011.55 1011.87 1012.07 1012.15 1012.11 1012.03 1011.95 1011.83 1011.75 1011.75 1011.75 1011.75 1011.87 1012.15 1012.43 1012.87 1013.39 1013.87 1014.31 1014.75 1015.15 1015.55 1015.83 1016.03 1016.23 1016.39 1016.55 1016.71 1016.83 1017.03 1017.27
1004.27 1004.47 1004.71 1004.91 1005.15 1005.31 1005.47 1005.63 1005.79 1005.95 1006.15 1006.31 1006.43 1006.63 1006.79 1006.95 1007.07 1007.15 1007.23 1007.39 1007.55 1007.75 1007.91 1008.07 1008.31 1008.55 1008.71 1008.83 1008.99 1009.19 1009.43 1009.59 1009.79 1010.03 1010.31 1010.67 1011.27 1011.79 1012.11 1012.23 1012.31 1012.43 1012.39 1012.27 1012.11 1012.03 1011.91 1011.87 1011.87 1012.03 1012.19 1012.43 1012.87 1013.35 1013.91 1014.43 1014.87 1015.31 1015.75 1016.03 1016.31 1016.47 1016.71 1016.91 1017.15 1017.39 1017.47 1017.55 1017.71
1004.03 1004.31 1004.51 1004.75 1004.91 1005.15 1005.31 1005.47 1005.63 1005.83 1006.03 1006.15 1006.35 1006.55 1006.71 1006.87 1007.03 1007.11 1007.19 1007.31 1007.55 1007.75 1007.99 1008.19 1008.47 1008.71 1008.87 1008.95 1009.15 1009.47 1009.79 1010.15 1010.43 1010.63 1010.91 1011.35 1011.83 1012.15 1012.31 1012.51 1012.71 1012.75 1012.59 1012.47 1012.39 1012.31 1012.27 1012.23 1012.31 1012.43 1012.67 1012.99 1013.47 1014.03 1014.55 1014.99 1015.47 1015.95 1016.31 1016.59 1016.79 1016.99 1017.15 1017.35 1017.67 1017.87 1018.03 1018.11 1018.23
1003.87 1004.07 1004.31 1004.51 1004.75 1004.91 1005.11 1005.31 1005.47 1005.71 1005.87 1006.03 1006.27 1006.43 1006.63 1006.79 1006.91 1007.07 1007.27 1007.51 1007.75 1008.07 1008.39 1008.71 1009.07 1009.43 1009.63 1009.87 1010.11 1010.43 1010.83 1011.15 1011.31 1011.51 1011.67 1011.87 1012.11 1012.39 1012.67 1012.91 1012.99 1013.03 1012.99 1012.83 1012.75 1012.75 1012.71 1012.75 1012.75 1012.91 1013.19 1013.59 1014.11 1014.71 1015.19 1015.59 1016.11 1016.59 1016.99 1017.27 1017.51 1017.71 1017.83 1017.91 1018.11 1018.31 1018.51 1018.71 1018.87
1003.63 1003.87 1004.11 1004.31 1004.51 1004.71 1004.87 1005.11 1005.31 1005.51 1005.75 1005.99 1006.19 1006.39 1006.59 1006.79 1007.03 1007.31 1007.59 1007.91 1008.31 1008.67 1009.03 1009.47 1009.83 1010.15 1010.39 1010.63 1010.87 1011.15 1011.47 1011.63 1011.79 1011.91 1012.03 1012.15 1012.35 1012.63 1012.91 1013.15 1013.31 1013.39 1013.31 1013.19 1013.15 1013.11 1013.15 1013.15 1013.27 1013.39 1013.63 1014.03 1014.67 1015.27 1015.75 1016.15 1016.67 1017.15 1017.59 1017.91 1018.19 1018.39 1018.47 1018.59 1018.71 1018.87 1019.03 1019.15 1019.31
1003.39 1003.63 1003.91 1004.15 1004.31 1004.51 1004.75 1004.95 1005.15 1005.43 1005.67 1005.95 1006.15 1006.35 1006.59 1006.83 1007.15 1007.63 1008.15 1008.55 1008.83 1009.19 1009.63 1010.03 1010.31 1010.59 1010.83 1011.07 1011.31 1011.67 1011.99 1012.11 1012.19 1012.31 1012.43 1012.59 1012.71 1012.87 1013.15 1013.47 1013.71 1013.75 1013.71 1013.59 1013.55 1013.51 1013.55 1013.59 1013.67 1013.79 1014.03 1014.47 1015.15 1015.79 1016.27 1016.63 1017.15 1017.67 1018.07 1018.39 1018.71 1018.91 1019.07 1019.15 1019.31 1019.47 1019.59 1019.71 1019.79
1003.15 1003.43 1003.67 1003.87 1004.11 1004.31 1004.59 1004.83 1005.07 1005.31 1005.59 1005.83 1006.11 1006.35 1006.59 1006.91 1007.47 1008.11 1008.59 1008.87 1009.15 1009.59 1010.11 1010.47 1010.67 1010.99 1011.39 1011.83 1012.11 1012.31 1012.43 1012.51 1012.59 1012.75 1012.87 1012.95 1013.03 1013.23 1013.55 1013.83 1014.03 1014.15 1014.11 1014.03 1013.95 1013.87 1013.91 1013.99 1014.03 1014.15 1014.39 1014.87 1015.59 1016.15 1016.63 1017.07 1017.63 1018.11 1018.43 1018.75 1019.07 1019.31 1019.51 1019.71 1019.87 1020.03 1020.15 1020.23 1020.19
1002.87 1003.15 1003.39 1003.67 1003.91 1004.15 1004.43 1004.67 1004.91 1005.19 1005.47 1005.75 1006.03 1006.31 1006.71 1007.23 1007.99 1008.55 1008.87 1009.07 1009.47 1010.07 1010.59 1011.03 1011.39 1011.75 1012.11 1012.39 1012.59 1012.75 1012.87 1012.87 1012.99 1013.15 1013.31 1013.35 1013.43 1013.63 1013.95 1014.15 1014.35 1014.51 1014.55 1014.43 1014.39 1014.31 1014.31 1014.35 1014.39 1014.43 1014.75 1015.27 1015.87 1016.43 1016.95 1017.47 1017.95 1018.39 1018.75 1019.03 1019.39 1019.67 1019.87 1020.11 1020.31 1020.43 1020.59 1020.63 1020.67
1002.63 1002.87 1003.15 1003.43 1003.71 1003.99 1004.23 1004.51 1004.79 1005.03 1005.35 1005.71 1006.03 1006.43 1006.95 1007.67 1008.35 1008.83 1009.15 1009.35 1009.87 1010.51 1011.11 1011.55 1011.95 1012.31 1012.59 1012.87 1013.03 1013.19 1013.31 1013.31 1013.47 1013.63 1013.79 1013.87 1013.99 1014.15 1014.35 1014.55 1014.75 1014.95 1014.99 1014.91 1014.83 1014.75 1014.75 1014.79 1014.79 1014.87 1015.07 1015.59 1016.15 1016.67 1017.15 1017.71 1018.15 1018.59 1018.99 1019.35 1019.71 1020.03 1020.23 1020.43 1020.59 1020.75 1020.87 1020.95 1020.99
1002.39 1002.63 1002.87 1003.15 1003.47 1003.75 1004.07 1004.35 1004.59 1004.91 1005.31 1005.75 1006.31 1006.87 1007.47 1008.03 1008.63 1009.15 1009.51 1009.75 1010.19 1010.75 1011.31 1011.83 1012.31 1012.75 1013.11 1013.31 1013.47 1013.59 1013.79 1013.95 1014.03 1014.15 1014.27 1014.43 1014.63 1014.71 1014.75 1014.87 1015.15 1015.39 1015.47 1015.39 1015.31 1015.27 1015.27 1015.31 1015.31 1015.39 1015.55 1015.91 1016.43 1016.91 1017.43 1017.91 1018.39 1018.83 1019.27 1019.63 1019.99 1020.31 1020.59 1020.75 1020.87 1021.03 1021.15 1021.23 1021.23
1002.15 1002.39 1002.63 1002.95 1003.27 1003.59 1003.99 1004.31 1004.59 1005.03 1005.59 1006.15 1006.79 1007.43 1007.95 1008.43 1008.99 1009.43 1009.79 1010.15 1010.59 1011.07 1011.59 1012.15 1012.83 1013.35 1013.59 1013.71 1013.79 1013.95 1014.19 1014.43 1014.59 1014.71 1014.79 1014.95 1015.11 1015.15 1015.15 1015.31 1015.59 1015.79 1015.87 1015.87 1015.83 1015.75 1015.75 1015.83 1015.87 1015.95 1016.11 1016.39 1016.83 1017.27 1017.71 1018.11 1018.59 1019.03 1019.51 1019.87 1020.19 1020.55 1020.87 1021.11 1021.19 1021.31 1021.47 1021.55 1021.59
1001.95 1002.23 1002.51 1002.83 1003.15 1003.55 1003.95 1004.43 1004.95 1005.55 1006.11 1006.67 1007.31 1007.87 1008.35 1008.79 1009.27 1009.63 1010.03 1010.43 1010.95 1011.51 1012.11 1012.75 1013.31 1013.67 1013.87 1013.95 1014.07 1014.31 1014.55 1014.83 1015.07 1015.23 1015.31 1015.43 1015.51 1015.59 1015.67 1015.83 1016.03 1016.15 1016.31 1016.35 1016.31 1016.31 1016.31 1016.35 1016.43 1016.47 1016.63 1016.87 1017.27 1017.63 1017.99 1018.35 1018.79 1019.31 1019.75 1020.15 1020.43 1020.75 1021.03 1021.31 1021.51 1021.67 1021.79 1021.91 1022.03
Wind_Speed
11 10 9 8 8 8 7 7 7 6 6 6 6 7 7 8 8 8 7 8 8 7 6 5 8 11 15 18 18 16 14 13 14 15 16 16 13 12 10 10 11 12 12 11 11 10 10 10 8 7 6 6 6 6 6 5 6 6 6 6 5 6 6 7 7 7 7 7 6
11 11 10 8 8 7 7 7 7 6 6 6 6 6 7 7 7 8 8 7 7 6 5 4 7 11 16 19 17 15 13 13 14 15 15 15 13 11 10 10 11 12 12 12 11 10 9 9 8 7 5 5 5 5 5 5 6 6 7 7 6 5 5 6 6 7 8 7 6
11 11 10 9 9 8 8 8 8 8 8 7 6 6 6 6 6 7 7 7 7 6 5 4 5 11 16 18 15 12 11 12 14 14 14 13 12 11 10 11 12 12 12 11 11 10 9 9 8 7 6 6 6 6 6 5 5 6 6 7 5 5 5 5 5 6 5 5 5
11 11 11 11 11 10 10 9 9 9 9 7 7 7 6 6 6 6 7 7 7 6 5 4 5 10 14 17 15 12 11 12 13 13 13 11 11 11 11 11 12 12 12 11 11 10 10 9 8 6 6 7 7 7 6 5 5 6 6 6 5 5 5 5 5 5 4 4 4
11 11 10 10 11 11 10 10 11 10 9 8 7 7 6 6 6 6 7 7 6 5 5 5 6 9 12 15 14 13 13 13 13 12 11 11 11 11 11 12 12 12 11 11 11 11 10 10 7 6 6 7 7 7 7 6 7 6 5 4 4 5 5 5 5 4 4 4 4
11 11 10 10 11 10 10 10 11 11 10 8 9 8 8 6 6 7 7 7 7 7 7 6 6 8 11 14 13 12 12 13 12 11 11 12 11 11 12 12 12 12 11 11 11 11 11 9 6 5 5 6 6 6 6 8 7 6 6 5 5 5 5 5 5 4 4 4 4
11 12 11 11 10 10 9 10 11 11 10 10 11 11 10 9 9 9 9 8 8 7 7 6 7 9 10 12 11 11 11 11 11 12 12 11 11 12 12 12 12 12 12 11 11 11 10 9 6 5 5 5 5 6 7 7 7 7 6 6 5 5 5 5 5 4 5 6 7
11 12 12 11 10 10 10 10 10 10 10 10 11 13 13 12 12 11 10 9 8 8 7 7 10 11 12 12 11 10 10 11 11 11 11 11 12 12 12 12 12 12 12 12 11 10 9 8 6 6 6 5 5 6 7 8 8 8 8 7 6 5 5 5 5 5 6 7 8
10 11 11 11 10 10 10 10 10 11 11 12 13 14 14 13 13 11 10 9 8 8 8 9 12 14 14 13 12 10 10 11 11 11 11 11 12 13 12 12 12 12 11 11 11 11 10 7 6 6 6 5 6 6 7 9 9 9 8 7 6 5 5 5 6 6 6 7 8
10 10 10 10 9 9 9 9 10 11 13 14 15 14 13 12 12 11 9 8 8 9 9 11 14 15 15 14 12 11 9 11 11 11 12 12 13 13 13 12 12 11 11 10 10 10 9 7 7 7 7 7 7 8 9 9 10 10 9 6 6 6 6 6 6 6 7 7 8
11 11 10 10 10 9 9 8 8 9 11 13 14 14 13 12 11 10 9 8 9 10 11 12 14 15 15 14 12 11 10 10 11 11 12 12 13 13 13 12 12 12 11 10 9 8 8 7 8 8 8 7 8 8 9 10 10 11 10 7 7 8 8 7 7 7 7 8 9
11 11 10 10 10 10 9 8 7 7 9 12 13 14 14 13 12 11 10 10 11 12 12 13 15 16 15 14 12 10 10 10 11 11 12 12 12 12 12 12 12 12 11 10 9 8 8 8 9 9 10 9 8 8 9 10 11 11 10 9 9 9 9 9 9 8 8 8 9
11 11 11 10 10 10 10 9 8 8 9 11 12 13 13 13 13 13 13 13 13 12 12 14 15 16 16 15 11 10 10 10 11 11 11 12 12 12 12 11 11 11 11 10 9 9 9 9 10 10 11 10 9 8 9 10 11 11 11 10 10 10 10 11 10 10 9 9 9
11 11 11 11 11 10 9 9 8 8 9 10 11 12 13 14 14 15 14 15 15 14 14 14 15 15 15 15 11 10 10 10 10 11 11 11 11 11 11 11 11 11 10 10 10 10 10 10 11 11 11 11 10 10 10 10 10 11 11 11 11 12 12 12 11 10 10 10 10
12 12 11 11 10 9 9 8 7 8 8 9 10 11 12 14 15 16 16 17 17 16 15 14 14 15 15 14 12 11 11 10 11 10 10 10 10 10 10 10 10 11 10 10 11 11 12 12 12 12 12 12 11 11 10 10 11 11 12 12 13 13 12 12 11 11 10 10 10
12 12 12 12 11 10 9 8 7 7 8 8 9 10 12 13 15 16 17 18 17 15 15 15 15 14 14 13 12 12 11 11 11 11 10 10 10 10 10 10 11 11 11 12 12 12 12 12 12 12 12 12 12 12 11 11 12 12 12 13 13 13 12 12 11 11 11 11 11
13 13 13 13 12 11 10 8 7 7 7 8 8 9 11 12 14 16 17 18 16 15 15 16 15 14 13 13 12 12 11 11 11 11 11 11 10 10 10 11 12 12 13 13 13 13 13 12 12 12 12 12 12 12 13 13 13 13 13 13 12 12 12 11 11 11 11 11 11
14 14 13 13 13 12 11 10 9 8 8 8 7 8 9 11 13 15 15 16 16 15 15 16 15 14 14 14 13 12 11 12 12 12 11 11 11 11 12 12 13 13 14 14 14 14 14 13 13 12 12 12 12 13 13 13 13 13 13 13 12 12 11 11 10 10 10 10 10
14 14 14 14 14 13 12 11 10 10 9 8 7 7 8 10 13 14 15 15 15 15 16 16 15 15 15 15 14 13 12 12 13 13 12 12 12 13 13 14 14 14 14 14 14 14 13 13 13 13 12 12 12 12 12 12 12 12 12 12 12 11 11 10 10 9 9 9 9
14 14 14 14 14 13 12 11 11 10 9 7 7 7 8 10 13 14 15 15 15 15 16 16 16 15 16 16 15 14 13 12 13 13 13 13 13 14 15 15 15 14 14 13 13 13 13 13 13 13 13 13 12 12 11 11 11 10 10 10 10 10 10 10 10 9 9 8 8
13 13 13 13 13 12 12 11 10 10 9 8 8 8 9 11 13 15 16 16 15 15 16 17 17 17 17 17 17 16 14 12 13 13 14 14 14 15 15 14 14 13 13 13 13 13 13 13 13 13 12 12 12 11 11 10 10 10 10 9 9 9 10 10 9 9 8 7 7
13 13 13 13 13 12 11 11 10 10 9 9 9 9 10 12 13 15 16 16 15 16 16 16 17 17 18 18 17 16 14 11 12 13 14 14 14 14 13 13 13 13 13 14 14 14 13 13 13 12 11 11 11 11 11 10 10 10 10 9 9 8 8 8 8 8 7 6 5
13 13 13 13 12 12 11 11 11 11 10 10 11 12 13 14 14 14 15 15 15 15 15 14 15 16 17 16 16 15 14 12 12 12 13 13 13 13 13 13 14 14 14 14 14 13 13 12 12 11 11 10 11 11 11 11 11 10 10 10 8 7 6 5 5 5 5 5 5
13 13 13 12 13 13 12 12 12 12 13 13 14 15 15 14 14 14 14 14 14 14 13 12 12 13 14 14 14 14 13 13 13 13 12 12 12 13 13 13 13 13 13 11 11 11 10 10 10 10 10 10 10 10 11 11 11 11 10 10 8 6 5 3 4 4 5 7 8
14 15 14 14 14 14 14 14 14 15 15 16 16 16 16 15 14 14 14 14 13 13 13 12 12 11 11 11 12 12 12 13 13 13 12 12 12 12 12 11 10 10 9 8 10 11 11 10 9 9 9 9 9 10 10 10 10 10 9 8 7 6 5 5 6 7 8 9 10
16 16 16 16 16 16 16 16 17 17 17 17 17 17 16 15 14 14 14 13 13 13 13 12 12 11 10 10 11 11 12 12 12 13 12 12 11 11 10 8 7 7 6 5 8 10 12 12 11 10 9 9 9 8 7 6 5 4 4 4 5 5 6 6 7 8 9 9 11
16 16 16 16 17 17 17 17 17 17 17 17 18 18 17 16 15 15 15 14 13 12 12 11 11 10 9 9 10 11 11 10 11 11 12 12 11 10 9 8 7 4 0 5 4 5 9 12 12 11 9 7 5 4 4 4 6 7 8 8 8 8 8 8 8 8 9 10 11
17 17 17 17 17 17 17 17 17 17 17 17 17 17 17 17 16 16 15 14 12 11 10 9 9 8 7 7 9 10 11 10 10 10 10 11 11 10 9 7 3 3 8 12 10 6 3 6 7 7 7 6 6 7 8 9 9 10 10 10 10 10 10 9 8 8 9 11 12
17 17 17 17 17 17 17 17 17 17 17 17 17 17 16 16 16 15 14 13 12 10 8 7 6 6 6 6 7 8 9 9 9 9 8 9 7 4 1 5 7 8 9 11 9 6 4 5 9 11 13 11 9 9 9 10 10 10 10 10 10 10 10 10 9 9 10 12 13
17 17 17 17 17 17 17 17 17 17 17 16 16 16 15 14 14 13 13 12 11 9 7 6 6 6 6 7 7 7 7 8 7 7 6 4 4 7 10 10 8 8 9 11 7 6 9 12 15 17 17 15 13 11 11 11 11 11 10 10 11 11 12 12 12 12 12 12 12
17 18 17 17 17 17 17 17 17 17 16 15 15 15 14 13 13 12 11 11 9 8 7 7 8 9 9 8 7 6 5 3 1 2 5 9 11 11 9 9 9 8 8 9 7 9 13 17 19 20 20 18 15 13 12 12 12 12 11 11 12 13 13 13 13 13 13 13 12
18 18 18 18 18 17 17 17 17 16 16 16 15 14 14 13 11 10 9 9 8 8 7 7 6 5 4 2 2 3 5 9 10 10 11 12 11 10 10 10 9 8 8 10 11 14 17 20 22 23 23 21 18 16 15 14 14 14 14 15 15 15 14 13 13 14 15 14 13
18 18 18 18 18 18 17 17 16 16 16 15 15 14 14 13 10 9 7 5 4 4 4 5 7 8 9 9 11 12 13 13 13 13 12 12 12 12 11 9 8 8 9 12 16 18 21 23 24 25 25 23 20 18 17 16 14 14 14 16 16 17 17 16 15 15 15 15 13
18 18 18 18 18 17 17 16 15 15 15 14 14 14 13 11 10 7 4 4 6 9 10 12 12 12 12 12 12 12 12 11 12 12 12 12 13 12 11 9 7 8 11 15 19 21 22 24 25 26 26 24 20 18 18 18 16 16 16 16 16 17 17 17 17 16 15 15 13
18 18 18 17 17 16 16 15 15 14 14 13 13 12 11 9 7 7 9 9 10 11 12 12 12 12 13 13 14 14 13 12 13 13 13 13 13 14 13 11 10 11 14 17 20 21 23 24 25 26 25 22 18 17 18 19 18 18 18 18 18 18 18 17 16 16 15 14 14
17 17 17 16 16 15 15 15 14 14 13 13 12 11 9 8 9 11 12 11 13 14 14 13 13 15 15 15 14 13 13 13 14 13 13 13 14 15 14 13 13 14 16 17 19 21 22 23 24 24 23 19 16 16 16 17 17 17 18 18 18 18 18 17 16 15 14 14 14
16 16 16 15 15 15 15 15 14 14 14 13 12 10 8 11 13 13 12 12 15 16 16 15 16 16 15 14 13 13 13 14 15 14 14 14 14 15 15 14 14 14 15 17 19 20 21 22 23 23 21 18 16 15 15 14 14 15 16 17 17 16 16 15 15 15 15 15 15
15 15 15 15 14 14 14 14 14 14 14 12 9 7 10 15 14 13 13 14 16 17 16 16 16 16 15 15 15 15 16 16 16 16 16 15 15 15 15 15 15 15 15 17 18 20 21 22 22 21 20 17 16 15 14 13 13 14 14 14 14 14 14 12 12 14 16 19 20
14 14 14 14 14 13 13 13 13 12 11 9 8 11 14 16 14 13 13 14 16 17 17 17 17 16 16 16 16 17 18 18 17 17 16 16 16 16 16 16 16 15 16 18 19 20 21 22 22 22 20 17 15 14 13 13 14 14 14 13 13 13 13 12 11 12 15 20 24
14 14 14 13 13 12 12 11 10 9 9 12 14 16 16 16 15 14 14 15 17 17 18 19 18 17 15 15 16 17 18 18 17 17 17 17 17 18 18 17 17 17 18 20 21 22 22 22 22 21 19 15 14 13 12 13 14 14 13 12 11 11 11 11 11 11 13 16 20
13 13 13 12 11 10 10 10 11 12 14 16 17 16 15 16 15 15 15 16 17 17 17 17 17 16 16 15 16 18 19 19 18 18 17 17 18 18 18 17 17 18 18 20 22 23 23 23 23 21 18 14 13 12 11 12 13 14 13 12 11 10 10 10 10 11 12 13 14
Wind_Direction
135 137 138 140 140 140 138 137 137 138 140 142 143 143 142 141 141 142 144 148 151 151 153 162 171 172 172 173 176 177 172 158 153 154 159 167 179 184 177 158 148 143 141 140 140 140 140 142 143 146 149 151 151 152 153 155 156 159 162 164 165 164 164 166 174 180 184 188 190
134 135 135 135 135 134 133 132 132 134 137 140 139 138 137 137 137 138 140 144 145 145 146 159 178 177 175 173 176 174 167 154 151 152 157 166 175 174 164 150 146 143 141 140 140 140 142 143 144 147 149 150 149 151 154 158 156 158 163 169 171 171 170 173 179 182 185 189 191
132 134 135 136 137 135 134 133 134 135 135 136 135 133 131 131 131 132 133 135 134 135 140 156 182 181 176 171 173 170 162 154 152 153 157 166 170 165 155 147 143 142 141 141 142 143 144 146 147 149 151 154 154 156 157 159 156 158 165 174 177 178 180 186 187 185 185 189 190
130 135 138 140 139 137 136 136 136 136 136 135 133 129 126 125 125 125 125 125 127 131 141 157 180 182 177 170 168 164 158 153 152 154 159 167 165 158 149 144 142 141 142 143 144 144 145 147 148 151 154 157 158 161 163 163 161 164 170 177 179 182 187 195 194 190 187 191 192
131 137 140 140 138 137 136 135 136 136 136 136 134 131 127 122 122 123 125 127 132 138 147 158 175 180 177 171 164 158 152 150 152 157 163 168 162 153 146 142 142 142 144 144 145 145 145 145 147 152 158 161 164 167 168 164 164 168 173 179 182 186 190 196 197 196 193 195 198
135 138 139 138 135 134 134 135 137 137 138 139 138 137 135 132 130 131 133 136 138 141 147 158 170 176 175 170 161 152 147 147 154 162 168 168 159 151 145 143 144 144 145 146 145 145 145 146 148 154 160 163 168 169 168 164 167 171 176 182 188 189 190 194 197 198 199 202 207
136 138 139 137 134 134 135 137 139 140 141 141 143 144 143 142 140 139 139 139 140 143 149 158 167 169 168 166 158 149 145 149 159 167 170 164 157 151 148 146 146 145 146 147 146 146 147 147 150 156 161 165 169 171 170 168 170 174 180 187 192 192 190 193 195 196 200 205 209
134 136 137 137 136 137 139 141 143 144 146 147 149 149 148 146 144 142 141 142 144 149 154 160 164 163 161 160 158 154 151 155 165 168 166 159 155 152 149 147 146 147 148 148 148 148 149 149 154 159 163 166 170 173 175 173 175 179 185 191 195 195 194 196 196 196 199 204 209
130 131 133 135 137 141 145 148 151 152 153 153 154 152 149 146 145 144 145 147 150 154 158 162 161 158 156 158 164 163 160 163 166 165 161 156 154 152 150 148 147 148 149 149 149 150 151 153 159 163 167 170 173 177 179 178 179 184 189 194 196 197 199 200 197 197 200 204 210
129 130 131 133 136 140 145 150 156 158 157 155 153 150 147 144 145 146 148 151 153 157 161 162 159 156 156 163 171 171 167 166 163 159 156 155 154 153 152 150 150 149 150 151 151 153 155 158 164 169 172 174 176 178 180 181 184 188 192 196 197 199 201 203 201 201 202 206 211
132 132 133 133 133 134 136 140 147 151 152 150 148 145 143 143 146 148 151 153 157 162 164 162 158 156 159 172 179 177 169 165 160 156 155 155 155 154 153 153 152 151 151 152 154 158 162 166 171 175 177 178 179 180 181 184 187 191 194 198 197 199 202 206 206 205 207 210 214
134 134 133 132 131 130 128 129 132 134 137 139 141 142 144 147 150 152 155 158 163 166 166 163 160 160 165 179 185 179 169 164 159 155 154 154 154 154 154 153 152 152 153 155 160 166 172 177 178 180 181 182 183 184 185 186 190 193 196 198 198 200 204 208 209 209 211 212 216
137 136 134 133 131 129 127 127 127 129 132 135 139 143 147 151 155 157 160 164 167 168 167 166 165 167 173 185 185 178 169 165 160 156 154 154 154 154 153 153 153 153 156 161 168 175 181 184 184 184 184 185 187 188 188 188 191 194 197 199 200 204 207 210 210 211 212 213 216
140 138 137 136 134 132 131 131 132 134 137 140 144 148 152 156 159 162 165 168 171 171 170 169 171 175 180 186 181 174 169 165 161 157 155 154 154 154 154 154 155 157 162 170 177 183 187 189 189 188 188 187 190 191 191 190 193 196 198 201 203 206 209 211 211 210 211 213 217
143 142 141 140 139 137 136 137 138 141 144 147 152 156 159 161 164 166 169 171 173 173 173 174 176 180 182 183 177 171 167 164 161 158 157 156 156 157 157 157 160 165 172 179 184 189 192 193 192 192 191 190 192 192 193 194 197 200 202 204 206 208 210 211 211 210 210 212 216
149 148 147 147 146 145 144 143 144 147 150 155 161 165 167 167 168 169 171 172 174 175 176 177 178 179 179 177 172 168 165 162 161 161 160 161 161 161 162 164 169 175 181 186 189 193 196 196 195 194 193 193 194 194 196 198 201 204 207 208 209 210 211 211 211 211 211 212 216
154 154 154 154 153 152 150 149 150 152 156 162 169 174 176 175 171 171 171 172 174 174 175 175 175 175 174 173 170 166 163 162 163 164 166 166 167 168 171 175 181 185 188 191 194 196 198 199 197 197 196 196 197 198 199 201 204 207 209 211 212 212 213 212 211 211 212 213 216
159 159 159 160 159 157 155 154 154 157 162 167 175 181 184 184 175 171 170 171 171 171 170 171 172 172 171 171 169 167 164 164 167 169 170 170 172 176 181 186 189 192 194 196 198 199 199 199 199 199 199 199 200 201 203 203 206 209 211 212 213 214 214 214 213 212 213 213 216
163 163 163 164 163 160 158 156 157 160 164 169 177 185 190 191 178 171 168 169 168 167 166 167 169 170 170 170 169 168 167 168 171 172 172 173 178 185 190 194 195 197 198 200 201 201 201 200 200 200 201 202 204 205 206 206 208 209 211 212 214 215 215 215 214 213 212 211 213
165 165 165 165 164 161 158 157 158 160 163 168 177 185 191 196 180 171 167 168 165 164 164 166 168 169 169 169 169 170 171 173 173 173 174 179 187 192 196 198 199 200 201 202 204 205 205 205 203 203 203 204 206 207 209 209 209 210 211 212 213 214 215 215 214 213 210 207 205
164 164 164 163 162 160 157 155 156 158 162 167 177 184 190 197 182 173 168 168 166 165 166 168 168 169 169 169 170 172 174 175 173 174 178 187 193 197 198 199 199 200 202 204 207 208 209 209 208 207 206 206 207 209 209 210 211 211 211 211 212 213 214 213 212 210 206 200 192
161 161 161 161 160 158 155 154 155 158 162 169 178 184 189 195 183 174 170 172 171 170 169 169 168 168 169 169 171 172 174 175 174 177 183 191 195 197 197 198 199 201 203 206 208 210 212 213 212 211 209 209 209 209 210 210 211 212 212 211 210 210 209 208 205 200 193 181 165
158 158 159 159 159 157 155 155 157 161 166 173 179 183 187 191 182 176 174 177 176 174 171 168 168 169 169 170 171 172 173 173 176 182 188 192 194 195 196 197 199 201 203 206 208 210 212 214 215 214 213 211 210 210 209 209 210 211 211 210 205 200 195 190 182 171 154 130 106
159 159 160 160 160 159 159 160 162 166 171 176 179 181 184 187 182 178 178 181 179 176 173 171 171 171 171 171 172 173 174 175 180 186 190 193 194 195 196 198 200 202 203 205 206 207 208 211 214 215 214 213 211 210 209 208 209 209 209 207 197 185 167 146 126 109 96 84 75
162 162 163 162 163 163 164 165 168 171 174 177 177 178 181 184 184 183 182 183 181 179 177 175 175 174 173 174 176 177 178 181 185 189 193 195 197 197 198 200 201 203 204 205 204 204 205 206 208 211 212 212 212 211 210 208 208 207 204 196 180 160 132 99 78 70 68 70 71
165 165 165 166 167 168 169 170 172 174 175 176 175 177 180 185 187 188 186 185 183 182 180 178 177 176 177 179 180 182 185 187 190 192 195 198 200 201 201 203 204 205 205 208 208 206 204 204 205 207 209 210 211 210 208 205 196 183 163 141 123 107 92 76 65 60 60 66 70
167 168 169 170 171 172 173 174 175 176 177 177 176 178 182 187 190 191 190 188 186 183 181 180 179 179 180 183 185 187 190 192 193 195 197 199 201 203 204 207 207 205 333 3 317 241 213 203 201 200 199 197 185 164 132 100 83 77 72 68 65 64 64 63 62 62 64 66 66
169 171 173 173 175 176 177 177 178 179 180 179 179 181 185 190 192 193 191 189 186 183 181 182 182 181 182 186 189 191 193 193 195 196 198 199 201 202 204 209 193 50 25 3 349 329 269 200 172 155 139 121 107 95 87 82 74 68 64 60 58 58 58 58 58 60 63 65 62
171 174 175 177 178 179 180 180 180 182 183 183 183 185 188 191 193 193 191 187 184 183 183 185 184 183 184 189 193 194 194 194 194 195 197 198 198 195 123 62 51 30 10 357 359 11 41 84 98 98 95 94 94 90 85 80 74 69 65 61 57 56 54 53 50 52 56 61 61
174 175 177 179 180 181 182 182 183 184 185 186 188 189 190 192 192 191 189 186 185 184 183 183 182 184 189 193 195 196 196 196 194 191 185 168 103 63 49 40 34 18 2 355 11 53 82 90 89 89 89 89 89 86 82 77 74 70 67 63 60 58 56 53 51 51 54 60 62
176 177 178 180 181 183 184 185 185 185 186 188 189 190 191 191 192 191 189 187 185 184 183 182 184 188 192 194 195 196 197 199 159 92 83 79 69 63 57 49 37 19 3 2 39 76 89 91 88 86 84 83 82 82 80 78 75 72 69 67 64 63 61 60 56 55 57 60 63
179 178 179 181 182 184 185 186 185 186 186 188 189 189 190 191 192 191 190 188 186 184 183 183 184 186 186 175 126 75 55 45 42 47 57 69 73 69 59 48 35 20 15 29 63 79 84 85 84 82 81 80 80 79 78 77 74 71 69 66 65 64 64 64 63 61 59 59 61
180 179 180 181 183 184 185 185 185 185 185 186 187 189 189 191 192 192 189 179 153 129 109 90 71 60 54 52 54 52 50 51 55 60 65 72 73 69 62 52 38 28 36 56 73 80 82 82 82 82 81 80 80 78 77 76 73 70 67 64 62 62 62 63 63 62 60 59 59
180 179 180 181 182 183 184 184 184 183 184 185 186 188 188 189 187 177 144 84 70 67 66 66 67 66 65 64 65 63 60 59 61 62 63 66 69 68 65 57 46 43 54 71 78 81 82 83 83 83 82 81 80 79 78 77 74 72 69 67 64 62 61 61 61 60 60 60 60
178 178 178 180 181 181 181 181 182 182 182 184 186 187 185 181 157 115 87 76 76 74 72 72 73 70 66 61 63 64 65 63 62 62 62 65 67 67 64 60 55 57 64 77 81 82 83 84 85 85 84 83 82 81 80 79 77 75 73 71 68 65 63 62 60 59 59 59 60
177 176 177 179 179 179 179 179 180 180 182 183 185 184 176 152 109 94 90 89 84 80 75 70 69 67 66 64 64 65 66 67 65 64 63 65 68 68 67 64 61 62 68 77 81 83 85 86 87 87 87 86 86 85 83 82 81 79 77 74 71 68 65 63 61 60 58 57 57
176 176 176 177 178 178 177 178 179 180 181 183 183 175 148 110 97 96 97 94 88 83 79 74 72 71 71 70 68 66 64 65 65 62 60 61 66 68 68 66 63 63 66 74 80 84 86 88 89 90 90 90 90 89 88 86 85 82 79 77 74 71 68 67 64 62 60 59 58
177 177 177 177 178 178 177 177 178 179 179 179 170 139 109 99 100 100 99 96 94 91 87 83 79 77 75 73 70 66 62 61 62 62 61 59 62 66 68 68 64 62 64 69 76 81 84 87 89 91 92 93 94 93 92 90 88 85 83 80 76 73 70 68 66 64 63 61 61
178 178 177 178 178 177 176 176 175 173 166 146 115 98 96 99 102 101 99 96 96 95 91 86 81 78 77 76 74 70 65 62 62 63 63 62 62 64 67 68 65 62 62 65 71 76 80 83 86 89 91 93 94 94 94 93 91 89 86 84 81 76 72 70 68 66 64 62 62
179 178 177 176 175 173 170 167 159 142 119 102 95 95 98 100 102 101 98 94 93 91 89 86 85 84 82 80 77 74 70 65 62 62 63 63 63 63 64 67 65 63 62 63 68 73 77 80 83 85 88 90 92 93 94 94 92 90 88 86 84 81 77 72 70 67 65 63 62
177 175 173 172 168 160 147 130 110 97 92 93 96 98 100 100 101 100 98 95 92 89 88 89 90 89 86 82 79 76 73 68 64 62 62 62 62 61 62 64 65 64 63 64 67 71 74 77 79 81 84 87 89 91 92 93 92 90 89 88 86 85 82 77 73 70 67 65 63